Content
SEND FEEDBACK

Daily
Averages
Monthly
Summary
United Kingdom

LONDON, ENGLAND


Home > Europe > United Kingdom > England
Elevation: 61 meters     Latitude: 51 09N     Longitude: 000 11W

WEATHER
 
SELECT A DAY
Number of Records: 294,581;   Date Range: 7/1/96 - 9/19/14
 
SHARE

PRINT THIS DATA

[ ← Previous Day ]
WEATHER ALMANAC - 29 MARCH, 2013
[ Next Day → ]
[ °F ]   °C
Weather ElementAverageHighLow
Temperature1.4 °C5 °C (1:50 pm)-2 °C (2:50 am)
Dewpoint-4.2 °C-2 °C (8:20 am)-6 °C (12:50 am)
Humidity67.2 %80 % (3:20 am)49 % (3:20 pm)
Barometer1010.2 hPa1012.2 hPa (12:50 am)1008.1 hPa (3:20 pm)
Wind Speed14.5 km/h25.9 km/h (2:50 pm)
Weather ElementAverage
Visibility10 km
Wind DirectionNE (45.7 °)

Weather ElementTotal
Precipitation---
Heating Degree Days16.8 (Base 18.3)
Averaged from 47 records on 29 March, 2013
WEATHER CONDITIONS BREAKOUT
WIND DIRECTION BREAKOUT
WEATHER BY HOUR - 29 MARCH, 2013
[ °F ]   °C
Local TimeTemperatureDewpointHumidityBarometerVisibilityWind DirectionWind SpeedGust SpeedPrecipitationEventsConditions
12:50 AM1 °C-6 °C60 %1012.2 hPa10 kmNorth (10°)13 km/hMostly Cloudy
1:20 AM0 °C-5 °C69 %1012.2 hPa10 kmNorth (10°)9.3 km/hMostly Cloudy
1:50 AM-1 °C-6 °C69 %1012.2 hPa10 kmNorth (10°)7.4 km/hMostly Cloudy
2:20 AM-1 °C-6 °C69 %1012.2 hPa10 kmNNE (20°)7.4 km/hPartly Cloudy
2:50 AM-2 °C-6 °C74 %1012.2 hPaNNE (30°)7.4 km/hClear
3:20 AM-2 °C-5 °C80 %1012.2 hPa10 kmNorth (10°)5.6 km/hPartly Cloudy
3:50 AM-2 °C-5 °C80 %1011.2 hPa10 kmNNE (20°)7.4 km/hScattered Clouds
4:20 AM-1 °C-5 °C75 %1011.2 hPa10 kmNNE (30°)5.6 km/hScattered Clouds
4:50 AM-1 °C-5 °C75 %1011.2 hPa10 kmVariable3.7 km/hScattered Clouds
5:20 AM-1 °C-5 °C75 %1011.2 hPa10 kmNNE (30°)5.6 km/hScattered Clouds
5:50 AM-2 °C-5 °C80 %1011.2 hPaNorth (10°)7.4 km/hClear
6:20 AM-1 °C-4 °C80 %1011.2 hPa10 kmNNE (20°)11.1 km/hMostly Cloudy
6:50 AM0 °C-4 °C75 %1011.2 hPa10 kmENE (60°)7.4 km/hOvercast
7:20 AM0 °C-4 °C75 %1011.2 hPa10 kmNE (50°)7.4 km/hMostly Cloudy
7:50 AM1 °C-3 °C75 %1011.2 hPa10 kmNE (40°)9.3 km/hMostly Cloudy
8:20 AM3 °C-2 °C70 %1011.2 hPa10 kmNE (50°)11.1 km/hPartly Cloudy
8:50 AM3 °C-3 °C65 %1011.2 hPa10 kmENE (70°)18.5 km/hScattered Clouds
9:20 AM3 °C-3 °C65 %1011.2 hPa10 kmENE (60°)18.5 km/hScattered Clouds
9:50 AM3 °C-3 °C65 %1010.2 hPa10 kmENE (60°)16.7 km/hScattered Clouds
10:20 AM3 °C-3 °C65 %1010.2 hPa10 kmNE (50°)18.5 km/hMostly Cloudy
10:50 AM3 °C-4 °C60 %1010.2 hPa10 kmENE (60°)18.5 km/hMostly Cloudy
11:20 AM4 °C-3 °C61 %1010.2 hPa10 kmENE (60°)16.7 km/hMostly Cloudy
11:50 AM3 °C-3 °C65 %1010.2 hPa10 kmENE (70°)18.5 km/hMostly Cloudy
12:20 PM4 °C-3 °C61 %1010.2 hPa10 kmENE (60°)18.5 km/hMostly Cloudy
12:50 PM4 °C-3 °C61 %1010.2 hPa10 kmENE (60°)20.4 km/hScattered Clouds
1:20 PM4 °C-4 °C56 %1009.1 hPa10 kmENE (60°)24.1 km/hMostly Cloudy
1:50 PM5 °C-4 °C53 %1009.1 hPa10 kmENE (70°)20.4 km/hMostly Cloudy
2:20 PM4 °C-4 °C56 %1009.1 hPa10 kmNE (40°)24.1 km/hMostly Cloudy
2:50 PM4 °C-5 °C52 %1009.1 hPa10 kmNE (40°)25.9 km/hMostly Cloudy
3:20 PM5 °C-5 °C49 %1008.1 hPa10 kmENE (70°)24.1 km/hMostly Cloudy
3:50 PM5 °C-5 °C49 %1008.1 hPa10 kmENE (60°)25.9 km/hMostly Cloudy
4:20 PM4 °C-6 °C49 %1008.1 hPa10 kmENE (70°)24.1 km/hScattered Clouds
4:50 PM3 °C-5 °C56 %1008.1 hPa10 kmENE (60°)24.1 km/hMostly Cloudy
5:20 PM3 °C-6 °C52 %1008.1 hPa10 kmNE (50°)22.2 km/hMostly Cloudy
5:50 PM3 °C-6 °C52 %1008.1 hPa10 kmENE (60°)20.4 km/hMostly Cloudy
6:20 PM2 °C-6 °C56 %1008.1 hPa10 kmENE (60°)18.5 km/hPartly Cloudy
6:50 PM2 °C-4 °C65 %1009.1 hPa10 kmENE (60°)16.7 km/hScattered Clouds
7:20 PM1 °C-4 °C70 %1009.1 hPa10 kmENE (60°)14.8 km/hScattered Clouds
7:50 PM0 °C-4 °C75 %1009.1 hPaENE (70°)13 km/hClear
8:20 PM-1 °C-4 °C80 %1009.1 hPaENE (70°)9.3 km/hClear
8:50 PM-1 °C-4 °C80 %1009.1 hPa10 kmENE (60°)9.3 km/hPartly Cloudy
9:20 PM0 °C-4 °C75 %1009.1 hPa10 kmNE (40°)11.1 km/hPartly Cloudy
9:50 PM0 °C-3 °C80 %1009.1 hPa10 kmNE (40°)13 km/hOvercast
10:20 PM0 °C-3 °C80 %1009.1 hPa10 kmNE (40°)13 km/hOvercast
10:50 PM1 °C-3 °C75 %1009.1 hPa10 kmNE (40°)13 km/hOvercast
11:20 PM1 °C-3 °C75 %1008.1 hPa10 kmNE (40°)11.1 km/hOvercast
11:50 PM1 °C-3 °C75 %1008.1 hPa10 kmNE (40°)13 km/hOvercast
Hourly data recorded from EGKK, located 0 kilometers away from London, England







STORIES FROM OUR PARTNERS